Masthead Graphic

Historical weather data from Belfast International Airport

The table below shows the weather reports for the last 24 hours taken from the METAR weather bulletins issued by Belfast International Airport. Readings should be at 30 min intervals however they are not always available

Date Time Pressure mb Temp. Wind Kts Wind Dir. Gusts Kts Conditions
20/07/2024 02:50:00 1006 14 4 160 clear skies
20/07/2024 02:20:00 1006 14 3 170 partly cloudy
20/07/2024 01:50:00 1006 15 2 150 mostly cloudy
20/07/2024 01:20:00 1007 15 3 180 overcast
light rain
20/07/2024 00:50:00 1007 15 3 170 overcast
20/07/2024 00:20:00 1007 15 2 140 overcast
19/07/2024 23:50:00 1008 15 2 Variable overcast
19/07/2024 23:20:00 1008 15 1 Variable mostly cloudy
19/07/2024 22:50:00 1008 15 3 240 clear skies
19/07/2024 22:20:00 1008 16 6 300 clear skies
19/07/2024 21:50:00 1008 17 6 290 partly cloudy
19/07/2024 21:20:00 1008 17 4 190 partly cloudy
19/07/2024 20:50:00 1008 18 5 190 partly cloudy
19/07/2024 20:20:00 1008 18 4 210 clear skies
19/07/2024 19:50:00 1008 18 5 190 clear skies
19/07/2024 19:20:00 1008 19 6 190 clear skies
19/07/2024 18:50:00 1009 19 5 210 scattered clouds
19/07/2024 18:20:00 1009 20 4 240 mostly cloudy
19/07/2024 17:50:00 1009 20 4 230 mostly cloudy
19/07/2024 17:20:00 1009 21 10 200 scattered clouds
19/07/2024 16:50:00 1009 21 7 180 partly cloudy
19/07/2024 16:20:00 1009 21 10 180 clear skies
19/07/2024 15:50:00 1009 21 10 180 scattered clouds
19/07/2024 15:20:00 1009 21 11 170 partly cloudy
19/07/2024 14:50:00 1009 21 11 180 partly cloudy
Next Last